WAT265 PANC-KLCK

Flight info

Callsign WAT265
Flight time 5h 34m
Altitude 37000
Route TED YESKA NCA13 JAGIT OMVAN 57N120W/N0462F390 HELVE CACHO 50N100W ZOMTA GPZ CUSAY OSH PMM OTENS KLOEE ESSIE DUBLN1
Aircraft A333/H-SDE3GHIJ2J3J5M1RVWXY/LB2D1

Departure

Time 2026-05-05 05:55
Airport Ted Stevens Anchorage International Airport (PANC)

Arrival

Time 2026-05-05 11:29
Airport Rickenbacker International Airport (KLCK)
Time Latitude Longitude Altitude Speed Heading
2026-05-05 05:30 61.17331 -149.98434 166 ft 0 kts 134°
2026-05-05 05:45 61.17333 -149.98438 167 ft 1 kts 134°
2026-05-05 05:45 61.17343 -149.98459 167 ft 2 kts 134°
2026-05-05 05:46 61.17353 -149.98482 167 ft 2 kts 134°
2026-05-05 05:46 61.17364 -149.98503 167 ft 2 kts 136°
2026-05-05 05:46 61.17375 -149.98524 167 ft 2 kts 143°
2026-05-05 05:46 61.17387 -149.98543 167 ft 2 kts 149°
2026-05-05 05:47 61.17400 -149.98557 167 ft 2 kts 155°
2026-05-05 05:47 61.17414 -149.98569 167 ft 2 kts 161°
2026-05-05 05:47 61.17429 -149.98578 167 ft 2 kts 167°
2026-05-05 05:47 61.17443 -149.98584 167 ft 2 kts 173°
2026-05-05 05:48 61.17448 -149.98585 167 ft 0 kts 175°
2026-05-05 05:50 61.17446 -149.98584 166 ft 1 kts 175°
2026-05-05 05:50 61.17424 -149.98585 166 ft 4 kts 186°
2026-05-05 05:51 61.17389 -149.98614 166 ft 6 kts 210°
2026-05-05 05:51 61.17341 -149.98674 166 ft 9 kts 211°
2026-05-05 05:51 61.17281 -149.98756 167 ft 11 kts 214°
2026-05-05 05:51 61.17211 -149.98871 167 ft 13 kts 223°
2026-05-05 05:52 61.17139 -149.99026 167 ft 16 kts 239°
2026-05-05 05:52 61.17125 -149.99268 167 ft 18 kts 270°
2026-05-05 05:52 61.17126 -149.99548 167 ft 20 kts 270°
2026-05-05 05:52 61.17126 -149.99854 167 ft 22 kts 270°
2026-05-05 05:53 61.17126 -150.00194 167 ft 24 kts 269°
2026-05-05 05:53 61.17126 -150.00545 167 ft 16 kts 270°
2026-05-05 05:53 61.17107 -150.00769 167 ft 12 kts 221°
2026-05-05 05:53 61.17021 -150.00798 167 ft 13 kts 175°
2026-05-05 05:54 61.16978 -150.00652 167 ft 11 kts 94°
2026-05-05 05:54 61.16977 -150.00488 167 ft 17 kts 90°
2026-05-05 05:54 61.16978 -149.99793 167 ft 79 kts 90°
2026-05-05 05:54 61.16979 -149.98224 167 ft 135 kts 90°
2026-05-05 05:55 61.16989 -149.95932 255 ft 173 kts 88°
2026-05-05 05:55 61.16972 -149.93556 951 ft 166 kts 99°
2026-05-05 05:55 61.16437 -149.91449 1505 ft 171 kts 128°
2026-05-05 05:55 61.15786 -149.89461 2084 ft 169 kts 121°
2026-05-05 05:56 61.15147 -149.87264 2317 ft 182 kts 120°
2026-05-05 05:56 61.14478 -149.84911 2545 ft 197 kts 120°
2026-05-05 05:56 61.13747 -149.82295 2705 ft 221 kts 119°
2026-05-05 05:56 61.12943 -149.79416 3087 ft 239 kts 119°
2026-05-05 05:57 61.12082 -149.76320 3530 ft 256 kts 119°
2026-05-05 05:57 61.11178 -149.73076 4165 ft 264 kts 119°
2026-05-05 05:57 61.10267 -149.69806 4958 ft 265 kts 119°
2026-05-05 05:57 61.09344 -149.66510 5734 ft 267 kts 119°
2026-05-05 05:58 61.08415 -149.63184 6500 ft 269 kts 119°
2026-05-05 05:58 61.07481 -149.59843 7243 ft 271 kts 119°
2026-05-05 05:58 61.06533 -149.56465 7977 ft 273 kts 119°
2026-05-05 05:58 61.05575 -149.53062 8706 ft 275 kts 119°
2026-05-05 05:59 61.04621 -149.49661 9414 ft 277 kts 120°
2026-05-05 05:59 61.03645 -149.46197 10097 ft 280 kts 120°
2026-05-05 05:59 61.02652 -149.42682 10522 ft 292 kts 120°
2026-05-05 05:59 61.01592 -149.38933 10809 ft 309 kts 120°
2026-05-05 06:00 61.00512 -149.34984 11103 ft 327 kts 116°
2026-05-05 06:00 60.99953 -149.30301 11385 ft 348 kts 95°
2026-05-05 06:00 61.00185 -149.25168 11926 ft 359 kts 86°
2026-05-05 06:00 61.00348 -149.20036 12623 ft 361 kts 90°
2026-05-05 06:01 61.00488 -149.14890 13281 ft 364 kts 91°
2026-05-05 06:01 61.00616 -149.09670 13902 ft 367 kts 91°
2026-05-05 06:01 61.00744 -149.04330 14511 ft 371 kts 92°
2026-05-05 06:01 61.00869 -148.99025 15108 ft 374 kts 92°
2026-05-05 06:02 61.00993 -148.93669 15706 ft 377 kts 92°
2026-05-05 06:02 61.01115 -148.88237 16257 ft 381 kts 92°
2026-05-05 06:02 61.01237 -148.82744 16804 ft 384 kts 92°
2026-05-05 06:02 61.01358 -148.77226 17326 ft 388 kts 92°
2026-05-05 06:03 61.01479 -148.71584 17843 ft 391 kts 93°
2026-05-05 06:03 61.01597 -148.65981 18358 ft 394 kts 93°
2026-05-05 06:03 61.01714 -148.60338 18859 ft 397 kts 93°
2026-05-05 06:03 61.01830 -148.54593 19348 ft 399 kts 93°
2026-05-05 06:04 61.01943 -148.48889 19808 ft 402 kts 93°
2026-05-05 06:04 61.02056 -148.43080 20198 ft 404 kts 93°
2026-05-05 06:04 61.02166 -148.37295 20505 ft 405 kts 93°
2026-05-05 06:04 61.02274 -148.31477 20866 ft 404 kts 94°
2026-05-05 06:05 61.02379 -148.25656 21256 ft 405 kts 94°
2026-05-05 06:05 61.02481 -148.19870 21673 ft 407 kts 94°
2026-05-05 06:05 61.02583 -148.13965 22080 ft 410 kts 94°
2026-05-05 06:05 61.02682 -148.08055 22503 ft 411 kts 95°
2026-05-05 06:06 61.02779 -148.02118 22900 ft 413 kts 95°
2026-05-05 06:06 61.02874 -147.96161 23253 ft 416 kts 95°
2026-05-05 06:06 61.02967 -147.90146 23614 ft 418 kts 95°
2026-05-05 06:06 61.03056 -147.84206 23978 ft 420 kts 95°
2026-05-05 06:07 61.03145 -147.78108 24309 ft 423 kts 95°
2026-05-05 06:07 61.03231 -147.72031 24590 ft 426 kts 95°
2026-05-05 06:07 61.03315 -147.65900 24937 ft 428 kts 95°
2026-05-05 06:07 61.03397 -147.59723 25267 ft 429 kts 96°
2026-05-05 06:08 61.03476 -147.53514 25565 ft 433 kts 96°
2026-05-05 06:08 61.03552 -147.47232 25832 ft 437 kts 96°
2026-05-05 06:08 61.03627 -147.40910 26125 ft 441 kts 96°
2026-05-05 06:08 61.03699 -147.34589 26411 ft 444 kts 97°
2026-05-05 06:09 61.03769 -147.28159 26690 ft 446 kts 97°
2026-05-05 06:09 61.03836 -147.21642 27046 ft 450 kts 97°
2026-05-05 06:09 61.03902 -147.15083 27306 ft 454 kts 97°
2026-05-05 06:09 61.03963 -147.08536 27609 ft 457 kts 98°
2026-05-05 06:10 61.04022 -147.01935 27880 ft 460 kts 97°
2026-05-05 06:10 61.04079 -146.95317 28143 ft 462 kts 98°
2026-05-05 06:10 61.04132 -146.88663 28390 ft 465 kts 98°
2026-05-05 06:10 61.04181 -146.81979 28621 ft 467 kts 98°
2026-05-05 06:11 61.04227 -146.75162 28858 ft 470 kts 98°
2026-05-05 06:11 61.04274 -146.68378 29050 ft 474 kts 98°
2026-05-05 06:11 61.04313 -146.61597 29306 ft 475 kts 98°
2026-05-05 06:11 61.04350 -146.54762 29613 ft 476 kts 98°
2026-05-05 06:12 61.04386 -146.47885 29932 ft 476 kts 98°
2026-05-05 06:12 61.04417 -146.41037 30258 ft 476 kts 98°
2026-05-05 06:12 61.04445 -146.34154 30578 ft 476 kts 99°
2026-05-05 06:12 61.04471 -146.27232 30912 ft 476 kts 99°
2026-05-05 06:13 61.04488 -146.20373 31247 ft 476 kts 99°
2026-05-05 06:13 61.04504 -146.13431 31575 ft 476 kts 100°
2026-05-05 06:13 61.04519 -146.06573 31933 ft 475 kts 100°
2026-05-05 06:13 61.04528 -145.99762 32270 ft 474 kts 100°
2026-05-05 06:14 61.04534 -145.92964 32593 ft 473 kts 100°
2026-05-05 06:14 61.04537 -145.86202 32920 ft 472 kts 100°
2026-05-05 06:14 61.04536 -145.79398 33257 ft 470 kts 100°
2026-05-05 06:14 61.04532 -145.72621 33581 ft 470 kts 100°
2026-05-05 06:15 61.04524 -145.65863 33821 ft 471 kts 100°
2026-05-05 06:15 61.04513 -145.59036 34047 ft 473 kts 100°
2026-05-05 06:15 61.04499 -145.52211 34310 ft 473 kts 100°
2026-05-05 06:15 61.04481 -145.45378 34594 ft 473 kts 100°
2026-05-05 06:16 61.04460 -145.38512 34851 ft 472 kts 100°
2026-05-05 06:16 61.04436 -145.31682 35102 ft 471 kts 101°
2026-05-05 06:16 61.04407 -145.24809 35358 ft 469 kts 101°
2026-05-05 06:16 61.04375 -145.18028 35565 ft 469 kts 101°
2026-05-05 06:17 61.04341 -145.11342 35748 ft 468 kts 101°
2026-05-05 06:17 61.04304 -145.04572 35877 ft 469 kts 101°
2026-05-05 06:17 61.04221 -144.91066 36085 ft 472 kts 101°
2026-05-05 06:18 61.04174 -144.84290 36212 ft 472 kts 101°
2026-05-05 06:18 61.04125 -144.77577 36336 ft 472 kts 100°
2026-05-05 06:18 61.04071 -144.70787 36452 ft 472 kts 100°
2026-05-05 06:18 61.04015 -144.63980 36564 ft 472 kts 100°
2026-05-05 06:19 61.03889 -144.50382 36659 ft 477 kts 100°
2026-05-05 06:19 61.03751 -144.36639 36774 ft 478 kts 100°
2026-05-05 06:20 61.03595 -144.22734 36805 ft 483 kts 101°
2026-05-05 06:20 61.03425 -144.08852 36818 ft 487 kts 100°
2026-05-05 06:21 61.03241 -143.94855 36811 ft 489 kts 100°
2026-05-05 06:21 61.03043 -143.80902 36801 ft 482 kts 100°
2026-05-05 06:22 61.02829 -143.67041 36815 ft 486 kts 100°
2026-05-05 06:22 61.02600 -143.53064 36789 ft 487 kts 100°
2026-05-05 06:23 61.02358 -143.39104 36667 ft 489 kts 100°
2026-05-05 06:23 61.02233 -143.32170 36507 ft 488 kts 101°
2026-05-05 06:23 61.02102 -143.25137 36321 ft 486 kts 101°
2026-05-05 06:24 61.01968 -143.18117 36175 ft 483 kts 101°
2026-05-05 06:24 61.01834 -143.11301 36313 ft 479 kts 101°
2026-05-05 06:24 61.01551 -142.97527 36473 ft 481 kts 101°
2026-05-05 06:25 61.01404 -142.90622 36583 ft 481 kts 101°
2026-05-05 06:25 61.01255 -142.83748 36685 ft 481 kts 101°
2026-05-05 06:25 61.00944 -142.69980 36833 ft 483 kts 101°
2026-05-05 06:26 61.00612 -142.55927 36608 ft 495 kts 101°
2026-05-05 06:26 61.00441 -142.48883 36443 ft 500 kts 101°
2026-05-05 06:26 61.00266 -142.41759 36284 ft 494 kts 101°
2026-05-05 06:27 60.99723 -142.20804 36222 ft 487 kts 102°
2026-05-05 06:27 60.99533 -142.13794 36062 ft 491 kts 102°
2026-05-05 06:28 60.99340 -142.06717 35842 ft 489 kts 102°
2026-05-05 06:28 60.99145 -141.99703 35637 ft 485 kts 102°
2026-05-05 06:28 60.98949 -141.92780 35631 ft 474 kts 102°
2026-05-05 06:28 60.98758 -141.86095 36195 ft 459 kts 103°
2026-05-05 06:29 60.98561 -141.79547 36418 ft 457 kts 103°
2026-05-05 06:29 60.98363 -141.72984 36633 ft 455 kts 103°
2026-05-05 06:29 60.98162 -141.66420 36750 ft 457 kts 102°
2026-05-05 06:30 60.97746 -141.53177 36827 ft 466 kts 102°
2026-05-05 06:30 60.97312 -141.39712 36816 ft 477 kts 102°
2026-05-05 06:30 60.97083 -141.32782 36669 ft 484 kts 102°
2026-05-05 06:31 60.96849 -141.25797 36513 ft 490 kts 102°
2026-05-05 06:31 60.96609 -141.18741 36299 ft 497 kts 102°
2026-05-05 06:31 60.96363 -141.11597 35809 ft 499 kts 102°
2026-05-05 06:31 60.96117 -141.04491 35241 ft 492 kts 102°
2026-05-05 06:32 60.95829 -140.97575 35083 ft 472 kts 105°
2026-05-05 06:32 60.94968 -140.84317 35161 ft 470 kts 106°
2026-05-05 06:33 60.94102 -140.70914 35369 ft 471 kts 106°
2026-05-05 06:33 60.93657 -140.64142 35076 ft 484 kts 106°
2026-05-05 06:33 60.93198 -140.57146 34880 ft 491 kts 106°
2026-05-05 06:34 60.92269 -140.43124 34721 ft 491 kts 106°
2026-05-05 06:34 60.91345 -140.29419 34910 ft 482 kts 107°
2026-05-05 06:34 60.90877 -140.22577 35055 ft 481 kts 107°
2026-05-05 06:35 60.90414 -140.15843 35255 ft 479 kts 107°
2026-05-05 06:35 60.89450 -140.02055 34934 ft 494 kts 107°
2026-05-05 06:35 60.88955 -139.94994 34832 ft 492 kts 107°
2026-05-05 06:36 60.88467 -139.88081 34898 ft 486 kts 107°
2026-05-05 06:36 60.87977 -139.81247 35043 ft 483 kts 107°
2026-05-05 06:36 60.87486 -139.74428 35292 ft 480 kts 107°
2026-05-05 06:36 60.86994 -139.67658 35517 ft 478 kts 107°
2026-05-05 06:37 60.86506 -139.60982 35757 ft 477 kts 107°
2026-05-05 06:37 60.86007 -139.54201 35952 ft 477 kts 107°
2026-05-05 06:37 60.85504 -139.47429 36117 ft 477 kts 106°
2026-05-05 06:37 60.85000 -139.40672 36280 ft 479 kts 106°
2026-05-05 06:38 60.84495 -139.33954 36434 ft 480 kts 107°
2026-05-05 06:38 60.83982 -139.27173 36590 ft 481 kts 107°
2026-05-05 06:38 60.83462 -139.20357 36746 ft 481 kts 107°
2026-05-05 06:38 60.82965 -139.13879 36852 ft 483 kts 107°
2026-05-05 06:39 60.82434 -139.07016 36904 ft 486 kts 107°
2026-05-05 06:39 60.81356 -138.93214 36952 ft 492 kts 107°
2026-05-05 06:40 60.80256 -138.79317 36916 ft 498 kts 107°
2026-05-05 06:40 60.79132 -138.65291 36887 ft 497 kts 107°
2026-05-05 06:41 60.77999 -138.51358 36885 ft 492 kts 107°
2026-05-05 06:41 60.76862 -138.37575 36861 ft 493 kts 107°
2026-05-05 06:42 60.75698 -138.23645 36791 ft 493 kts 107°
2026-05-05 06:42 60.74527 -138.09819 36646 ft 497 kts 107°
2026-05-05 06:42 60.73930 -138.02826 36396 ft 497 kts 107°
2026-05-05 06:43 60.73331 -137.95851 36231 ft 493 kts 107°
2026-05-05 06:43 60.72742 -137.89012 36537 ft 481 kts 108°
2026-05-05 06:43 60.72154 -137.82275 36828 ft 478 kts 108°
2026-05-05 06:44 60.70963 -137.68759 36853 ft 487 kts 107°
2026-05-05 06:44 60.69738 -137.54993 36860 ft 496 kts 107°
2026-05-05 06:45 60.68486 -137.41084 36850 ft 501 kts 107°
2026-05-05 06:45 60.67207 -137.27048 36848 ft 504 kts 108°
2026-05-05 06:46 60.65909 -137.12973 36854 ft 499 kts 108°
2026-05-05 06:46 60.64614 -136.99120 36832 ft 497 kts 108°
2026-05-05 06:47 60.63297 -136.85194 36678 ft 500 kts 108°
2026-05-05 06:47 60.62631 -136.78209 36558 ft 500 kts 108°
2026-05-05 06:47 60.61963 -136.71239 36416 ft 500 kts 107°
2026-05-05 06:48 60.60633 -136.57486 36596 ft 494 kts 107°
2026-05-05 06:48 60.59280 -136.43666 36712 ft 496 kts 107°
2026-05-05 06:49 60.57897 -136.29703 36690 ft 505 kts 108°
2026-05-05 06:49 60.56478 -136.15523 36642 ft 507 kts 108°
2026-05-05 06:50 60.55060 -136.01511 36617 ft 499 kts 108°
2026-05-05 06:50 60.53641 -135.87671 36621 ft 501 kts 108°
2026-05-05 06:51 60.52204 -135.73790 36649 ft 503 kts 108°
2026-05-05 06:51 60.50745 -135.59840 36556 ft 505 kts 108°
2026-05-05 06:52 60.49272 -135.45918 36423 ft 503 kts 108°
2026-05-05 06:52 60.47772 -135.31886 36345 ft 503 kts 108°
2026-05-05 06:53 60.46270 -135.17990 36398 ft 501 kts 108°
2026-05-05 06:53 60.45510 -135.11009 36577 ft 499 kts 108°
2026-05-05 06:53 60.44754 -135.04115 36719 ft 498 kts 108°
2026-05-05 06:53 60.43995 -134.97212 36834 ft 499 kts 108°
2026-05-05 06:54 60.43236 -134.90363 36850 ft 503 kts 108°
2026-05-05 06:54 60.41676 -134.76373 36854 ft 509 kts 108°
2026-05-05 06:55 60.40100 -134.62383 36920 ft 511 kts 108°
2026-05-05 06:55 60.38505 -134.48360 36919 ft 508 kts 108°
2026-05-05 06:56 60.36893 -134.34340 36923 ft 506 kts 109°
2026-05-05 06:56 60.35279 -134.20445 36919 ft 506 kts 109°
2026-05-05 06:57 60.33656 -134.06609 36926 ft 507 kts 109°
2026-05-05 06:57 60.32010 -133.92711 36941 ft 508 kts 109°
2026-05-05 06:58 60.30344 -133.78787 36944 ft 508 kts 109°
2026-05-05 06:58 60.28665 -133.64887 36950 ft 508 kts 109°
2026-05-05 06:59 60.26962 -133.50920 36857 ft 509 kts 109°
2026-05-05 06:59 60.25255 -133.37058 36774 ft 507 kts 109°
2026-05-05 07:00 60.23533 -133.23215 36727 ft 507 kts 109°
2026-05-05 07:00 60.21796 -133.09369 36924 ft 506 kts 109°
2026-05-05 07:01 60.20035 -132.95471 36940 ft 512 kts 109°
2026-05-05 07:01 60.18249 -132.81496 36935 ft 512 kts 109°
2026-05-05 07:02 60.16108 -132.67905 36937 ft 506 kts 114°
2026-05-05 07:02 60.13731 -132.54552 36974 ft 508 kts 115°
2026-05-05 07:03 60.11283 -132.41187 36977 ft 508 kts 115°
2026-05-05 07:03 60.08808 -132.27792 36973 ft 508 kts 115°
2026-05-05 07:04 60.06329 -132.14478 36974 ft 509 kts 115°
2026-05-05 07:04 60.03820 -132.01088 36911 ft 511 kts 115°
2026-05-05 07:05 60.01311 -131.87782 36928 ft 507 kts 115°
2026-05-05 07:05 59.98799 -131.74567 36989 ft 510 kts 115°
2026-05-05 07:06 59.96262 -131.61298 36961 ft 511 kts 115°
2026-05-05 07:06 59.94979 -131.54625 36847 ft 511 kts 115°
2026-05-05 07:06 59.93697 -131.47980 36723 ft 510 kts 115°
2026-05-05 07:07 59.91142 -131.34802 36672 ft 507 kts 116°
2026-05-05 07:07 59.88546 -131.21500 36674 ft 509 kts 116°
2026-05-05 07:08 59.85954 -131.08310 36584 ft 511 kts 116°
2026-05-05 07:08 59.83311 -130.94945 36474 ft 510 kts 115°
2026-05-05 07:08 59.82021 -130.88455 36672 ft 505 kts 115°
2026-05-05 07:09 59.80715 -130.81908 36850 ft 504 kts 115°
2026-05-05 07:09 59.79400 -130.75334 36972 ft 504 kts 115°
2026-05-05 07:09 59.78100 -130.68858 37078 ft 507 kts 115°
2026-05-05 07:10 59.75423 -130.55589 37108 ft 515 kts 115°
2026-05-05 07:10 59.72730 -130.42326 37092 ft 521 kts 115°
2026-05-05 07:11 59.69990 -130.28920 37059 ft 521 kts 115°
2026-05-05 07:11 59.67262 -130.15655 37049 ft 515 kts 115°
2026-05-05 07:12 59.64516 -130.02406 37059 ft 516 kts 115°
2026-05-05 07:12 59.61776 -129.89262 37065 ft 517 kts 115°
2026-05-05 07:13 59.59004 -129.76047 37062 ft 517 kts 115°
2026-05-05 07:13 59.56229 -129.62900 37033 ft 518 kts 115°
2026-05-05 07:14 59.53417 -129.49669 36884 ft 518 kts 115°
2026-05-05 07:14 59.50629 -129.36629 36917 ft 513 kts 115°
2026-05-05 07:14 59.49224 -129.30090 37031 ft 513 kts 116°
2026-05-05 07:15 59.47808 -129.23524 37012 ft 516 kts 116°
2026-05-05 07:15 59.44968 -129.10413 37062 ft 520 kts 116°
2026-05-05 07:16 59.42080 -128.97159 37062 ft 520 kts 115°
2026-05-05 07:16 59.39197 -128.84013 36980 ft 519 kts 115°
2026-05-05 07:16 59.37766 -128.77521 36840 ft 520 kts 115°
2026-05-05 07:17 59.36312 -128.70946 36652 ft 520 kts 115°
2026-05-05 07:17 59.33426 -128.57948 36664 ft 515 kts 115°
2026-05-05 07:18 59.30521 -128.44949 36768 ft 517 kts 115°
2026-05-05 07:18 59.27604 -128.31970 36946 ft 519 kts 116°
2026-05-05 07:19 59.24638 -128.18860 37059 ft 524 kts 116°
2026-05-05 07:19 59.21652 -128.05740 36925 ft 523 kts 116°
2026-05-05 07:20 59.18668 -127.92714 36831 ft 518 kts 116°
2026-05-05 07:20 59.15715 -127.79900 36982 ft 518 kts 115°
2026-05-05 07:21 59.12735 -127.67045 37027 ft 522 kts 115°
2026-05-05 07:21 59.09701 -127.54034 37063 ft 527 kts 115°
2026-05-05 07:22 59.06652 -127.41035 37066 ft 524 kts 115°
2026-05-05 07:22 59.03610 -127.28146 37036 ft 521 kts 116°
2026-05-05 07:23 59.00539 -127.15215 37038 ft 523 kts 116°
2026-05-05 07:23 58.97464 -127.02344 37051 ft 523 kts 115°
2026-05-05 07:24 58.94362 -126.89432 37071 ft 524 kts 115°
2026-05-05 07:24 58.91261 -126.76605 37089 ft 525 kts 115°
2026-05-05 07:25 58.88120 -126.63689 37090 ft 525 kts 115°
2026-05-05 07:25 58.84993 -126.50905 37099 ft 525 kts 115°
2026-05-05 07:26 58.81830 -126.38048 37112 ft 525 kts 115°
2026-05-05 07:26 58.78661 -126.25237 37120 ft 525 kts 116°
2026-05-05 07:27 58.75471 -126.12422 37120 ft 527 kts 116°
2026-05-05 07:27 58.72293 -125.99731 37107 ft 526 kts 116°
2026-05-05 07:28 58.69066 -125.86915 37091 ft 526 kts 116°
2026-05-05 07:28 58.65840 -125.74178 37095 ft 527 kts 115°
2026-05-05 07:29 58.62609 -125.61496 37129 ft 528 kts 115°
2026-05-05 07:29 58.59339 -125.48727 37205 ft 528 kts 115°
2026-05-05 07:30 58.56041 -125.35926 37214 ft 529 kts 115°
2026-05-05 07:30 58.51078 -125.16803 37201 ft 528 kts 116°
2026-05-05 07:31 58.47784 -125.04199 37209 ft 529 kts 116°
2026-05-05 07:31 58.44458 -124.91542 37231 ft 530 kts 115°
2026-05-05 07:32 58.41111 -124.78880 37245 ft 531 kts 115°
2026-05-05 07:32 58.39423 -124.72522 37143 ft 533 kts 115°
2026-05-05 07:32 58.37732 -124.66168 37197 ft 528 kts 115°
2026-05-05 07:33 58.34356 -124.53537 37215 ft 533 kts 115°
2026-05-05 07:33 58.31033 -124.41174 37186 ft 532 kts 115°
2026-05-05 07:34 58.27605 -124.28490 37144 ft 531 kts 115°
2026-05-05 07:34 58.24200 -124.15962 37138 ft 532 kts 115°
2026-05-05 07:35 58.20732 -124.03273 37158 ft 533 kts 115°
2026-05-05 07:35 58.17288 -123.90742 37166 ft 532 kts 115°
2026-05-05 07:36 58.13834 -123.78240 37173 ft 532 kts 115°
2026-05-05 07:36 58.10361 -123.65741 37174 ft 532 kts 115°
2026-05-05 07:37 58.06874 -123.53261 37166 ft 532 kts 115°
2026-05-05 07:37 58.03365 -123.40768 37162 ft 532 kts 115°
2026-05-05 07:38 57.99845 -123.28302 37154 ft 533 kts 116°
2026-05-05 07:38 57.96318 -123.15884 37157 ft 534 kts 116°
2026-05-05 07:39 57.92758 -123.03416 37152 ft 534 kts 115°
2026-05-05 07:39 57.89193 -122.90997 37145 ft 534 kts 115°
2026-05-05 07:40 57.85592 -122.78516 37144 ft 534 kts 115°
2026-05-05 07:40 57.81997 -122.66127 37148 ft 535 kts 115°
2026-05-05 07:41 57.78365 -122.53677 37153 ft 536 kts 115°
2026-05-05 07:41 57.74724 -122.41262 37154 ft 537 kts 114°
2026-05-05 07:42 57.71053 -122.28809 37150 ft 538 kts 115°
2026-05-05 07:42 57.67390 -122.16456 37156 ft 539 kts 115°
2026-05-05 07:43 57.63683 -122.04015 37160 ft 539 kts 115°
2026-05-05 07:43 57.59987 -121.91682 37161 ft 540 kts 115°
2026-05-05 07:44 57.56296 -121.79426 37163 ft 540 kts 115°
2026-05-05 07:44 57.52537 -121.67011 37164 ft 541 kts 115°
2026-05-05 07:45 57.48813 -121.54775 37165 ft 541 kts 115°
2026-05-05 07:45 57.45079 -121.42571 37166 ft 540 kts 115°
2026-05-05 07:46 57.41314 -121.30325 37162 ft 540 kts 115°
2026-05-05 07:46 57.37532 -121.18097 37164 ft 540 kts 115°
2026-05-05 07:47 57.33758 -121.05953 37169 ft 540 kts 115°
2026-05-05 07:47 57.29988 -120.93882 37174 ft 539 kts 115°
2026-05-05 07:48 57.26189 -120.81783 37177 ft 539 kts 114°
2026-05-05 07:48 57.22389 -120.69739 37179 ft 540 kts 114°
2026-05-05 07:49 57.18549 -120.57636 37184 ft 539 kts 114°
2026-05-05 07:49 57.14728 -120.45649 37190 ft 539 kts 114°
2026-05-05 07:50 57.10886 -120.33661 37191 ft 539 kts 115°
2026-05-05 07:50 57.07024 -120.21664 37188 ft 540 kts 115°
2026-05-05 07:51 57.03157 -120.09718 37187 ft 539 kts 114°
2026-05-05 07:51 56.99269 -119.97780 37185 ft 537 kts 112°
2026-05-05 07:52 56.95835 -119.85555 37192 ft 536 kts 110°
2026-05-05 07:52 56.92324 -119.73383 37194 ft 536 kts 110°
2026-05-05 07:53 56.88770 -119.61158 37177 ft 536 kts 110°
2026-05-05 07:53 56.85233 -119.49054 37141 ft 536 kts 110°
2026-05-05 07:54 56.81664 -119.36903 37166 ft 535 kts 110°
2026-05-05 07:54 56.78090 -119.24796 37168 ft 538 kts 111°
2026-05-05 07:55 56.74502 -119.12711 37170 ft 537 kts 110°
2026-05-05 07:55 56.70895 -119.00620 37172 ft 537 kts 110°
2026-05-05 07:56 56.67283 -118.88575 37173 ft 536 kts 110°
2026-05-05 07:56 56.63678 -118.76613 37176 ft 536 kts 110°
2026-05-05 07:57 56.60045 -118.64620 37186 ft 537 kts 110°
2026-05-05 07:57 56.56375 -118.52571 37195 ft 537 kts 110°
2026-05-05 07:58 56.52709 -118.40593 37196 ft 537 kts 110°
2026-05-05 07:58 56.49036 -118.28650 37192 ft 537 kts 111°
2026-05-05 07:59 56.45330 -118.16668 37196 ft 538 kts 111°
2026-05-05 07:59 56.41622 -118.04736 37200 ft 537 kts 110°
2026-05-05 08:00 56.37902 -117.92825 37203 ft 537 kts 110°
2026-05-05 08:00 56.34172 -117.80941 37201 ft 537 kts 110°
2026-05-05 08:01 56.30453 -117.69154 37200 ft 536 kts 110°
2026-05-05 08:01 56.26702 -117.57319 37203 ft 535 kts 110°
2026-05-05 08:02 56.22946 -117.45529 37207 ft 536 kts 110°
2026-05-05 08:02 56.19874 -117.33357 37220 ft 525 kts 102°
2026-05-05 08:03 56.16924 -117.21091 37205 ft 528 kts 104°
2026-05-05 08:03 56.13908 -117.08830 37202 ft 527 kts 104°
2026-05-05 08:04 56.10876 -116.96576 37203 ft 527 kts 104°
2026-05-05 08:04 56.07838 -116.84377 37202 ft 527 kts 104°
2026-05-05 08:05 56.04813 -116.72292 37198 ft 526 kts 104°
2026-05-05 08:05 56.01776 -116.60214 37194 ft 526 kts 104°
2026-05-05 08:06 55.98714 -116.48137 37198 ft 525 kts 103°
2026-05-05 08:06 55.95670 -116.36172 37208 ft 524 kts 103°
2026-05-05 08:07 55.92580 -116.24097 37207 ft 524 kts 104°
2026-05-05 08:07 55.89523 -116.12200 37203 ft 523 kts 104°
2026-05-05 08:08 55.86445 -116.00295 37185 ft 523 kts 104°
2026-05-05 08:08 55.83351 -115.88369 37194 ft 524 kts 104°
2026-05-05 08:09 55.80248 -115.76506 37192 ft 524 kts 104°
2026-05-05 08:09 55.77136 -115.64659 37195 ft 524 kts 104°
2026-05-05 08:10 55.74004 -115.52811 37203 ft 524 kts 104°
2026-05-05 08:10 55.70853 -115.40938 37198 ft 524 kts 104°
2026-05-05 08:11 55.67709 -115.29154 37198 ft 524 kts 105°
2026-05-05 08:11 55.64540 -115.17347 37195 ft 524 kts 105°
2026-05-05 08:12 55.61368 -115.05585 37200 ft 524 kts 105°
2026-05-05 08:12 55.58171 -114.93785 37199 ft 523 kts 106°
2026-05-05 08:13 55.54996 -114.82137 37187 ft 521 kts 106°
2026-05-05 08:13 55.51814 -114.70521 37184 ft 519 kts 106°
2026-05-05 08:14 55.48611 -114.58885 37182 ft 518 kts 106°
2026-05-05 08:14 55.45427 -114.47360 37190 ft 517 kts 106°
2026-05-05 08:15 55.42231 -114.35866 37194 ft 518 kts 107°
2026-05-05 08:15 55.39001 -114.24313 37205 ft 519 kts 108°
2026-05-05 08:16 55.35768 -114.12781 37205 ft 518 kts 108°
2026-05-05 08:16 55.32539 -114.01343 37212 ft 517 kts 108°
2026-05-05 08:17 55.29287 -113.89887 37214 ft 516 kts 108°
2026-05-05 08:17 55.26054 -113.78546 37210 ft 515 kts 108°
2026-05-05 08:18 55.22816 -113.67235 37219 ft 514 kts 108°
2026-05-05 08:18 55.19541 -113.55852 37220 ft 514 kts 108°
2026-05-05 08:19 55.16260 -113.44510 37221 ft 514 kts 108°
2026-05-05 08:19 55.12992 -113.33258 37218 ft 513 kts 109°
2026-05-05 08:20 55.09692 -113.21950 37214 ft 514 kts 110°
2026-05-05 08:20 55.06405 -113.10752 37215 ft 513 kts 110°
2026-05-05 08:21 55.03112 -112.99577 37215 ft 512 kts 110°
2026-05-05 08:21 54.99797 -112.88388 37219 ft 512 kts 110°
2026-05-05 08:22 54.96491 -112.77280 37219 ft 511 kts 110°
2026-05-05 08:22 54.93159 -112.66138 37216 ft 510 kts 110°
2026-05-05 08:23 54.89858 -112.55147 37212 ft 509 kts 110°
2026-05-05 08:23 54.86537 -112.44089 37192 ft 508 kts 110°
2026-05-05 08:24 54.83197 -112.33023 37191 ft 508 kts 111°
2026-05-05 08:24 54.79859 -112.22021 37192 ft 509 kts 111°
2026-05-05 08:25 54.76510 -112.11030 37192 ft 509 kts 111°
2026-05-05 08:25 54.73156 -112.00073 37193 ft 508 kts 111°
2026-05-05 08:26 54.69781 -111.89098 37183 ft 508 kts 111°
2026-05-05 08:26 54.66430 -111.78252 37181 ft 506 kts 111°
2026-05-05 08:27 54.63072 -111.67429 37191 ft 505 kts 112°
2026-05-05 08:27 54.59695 -111.56599 37193 ft 505 kts 112°
2026-05-05 08:28 54.56323 -111.45831 37195 ft 505 kts 112°
2026-05-05 08:28 54.52927 -111.35033 37197 ft 505 kts 112°
2026-05-05 08:29 54.49535 -111.24299 37196 ft 506 kts 113°
2026-05-05 08:30 54.44412 -111.08175 37199 ft 505 kts 113°
2026-05-05 08:30 54.40990 -110.97468 37203 ft 505 kts 113°
2026-05-05 08:31 54.37569 -110.86808 37206 ft 505 kts 113°
2026-05-05 08:31 54.34128 -110.76132 37206 ft 504 kts 113°
2026-05-05 08:32 54.30692 -110.65520 37206 ft 503 kts 113°
2026-05-05 08:32 54.27263 -110.54974 37199 ft 502 kts 113°
2026-05-05 08:33 54.23805 -110.44388 37192 ft 502 kts 113°
2026-05-05 08:33 54.20350 -110.33855 37192 ft 502 kts 114°
2026-05-05 08:34 54.16862 -110.23267 37193 ft 502 kts 114°
2026-05-05 08:34 54.13384 -110.12756 37192 ft 502 kts 114°
2026-05-05 08:35 54.09894 -110.02255 37191 ft 502 kts 114°
2026-05-05 08:35 54.06417 -109.91836 37189 ft 502 kts 115°
2026-05-05 08:36 54.02915 -109.81388 37188 ft 501 kts 115°
2026-05-05 08:36 53.99415 -109.70989 37188 ft 501 kts 115°
2026-05-05 08:37 53.95890 -109.60562 37187 ft 501 kts 115°
2026-05-05 08:37 53.92355 -109.50147 37185 ft 501 kts 115°
2026-05-05 08:38 53.88835 -109.39822 37175 ft 501 kts 115°
2026-05-05 08:38 53.85274 -109.29423 37177 ft 501 kts 115°
2026-05-05 08:39 53.81706 -109.19044 37179 ft 502 kts 115°
2026-05-05 08:39 53.78141 -109.08716 37164 ft 502 kts 116°
2026-05-05 08:40 53.74580 -108.98447 37149 ft 501 kts 116°
2026-05-05 08:40 53.70988 -108.88128 37147 ft 501 kts 116°
2026-05-05 08:41 53.67406 -108.77881 37146 ft 500 kts 116°
2026-05-05 08:41 53.63830 -108.67693 37145 ft 500 kts 116°
2026-05-05 08:42 53.60238 -108.57504 37143 ft 500 kts 116°
2026-05-05 08:42 53.56627 -108.47300 37142 ft 499 kts 116°
2026-05-05 08:43 53.53027 -108.37173 37139 ft 499 kts 116°
2026-05-05 08:43 53.49396 -108.26995 37134 ft 500 kts 117°
2026-05-05 08:44 53.45765 -108.16863 37130 ft 500 kts 117°
2026-05-05 08:44 53.42116 -108.06719 37129 ft 500 kts 117°
2026-05-05 08:45 53.38468 -107.96620 37129 ft 500 kts 117°
2026-05-05 08:45 53.34824 -107.86573 37132 ft 499 kts 117°
2026-05-05 08:46 53.31173 -107.76546 37133 ft 499 kts 117°
2026-05-05 08:46 53.27493 -107.66480 37133 ft 499 kts 117°
2026-05-05 08:47 53.23828 -107.56497 37132 ft 499 kts 117°
2026-05-05 08:47 53.20131 -107.46466 37133 ft 499 kts 117°
2026-05-05 08:48 53.16459 -107.36542 37132 ft 499 kts 117°
2026-05-05 08:48 53.12741 -107.26533 37126 ft 499 kts 118°
2026-05-05 08:49 53.09010 -107.16531 37123 ft 499 kts 118°
2026-05-05 08:49 53.05307 -107.06642 37124 ft 499 kts 118°
2026-05-05 08:50 53.01575 -106.96715 37128 ft 498 kts 118°
2026-05-05 08:50 52.97847 -106.86839 37127 ft 498 kts 118°
2026-05-05 08:51 52.94133 -106.77035 37126 ft 498 kts 118°
2026-05-05 08:51 52.90374 -106.67155 37126 ft 497 kts 118°
2026-05-05 08:52 52.86617 -106.57314 37108 ft 497 kts 118°
2026-05-05 08:52 52.82859 -106.47512 37090 ft 497 kts 118°
2026-05-05 08:53 52.79085 -106.37705 37082 ft 496 kts 118°
2026-05-05 08:53 52.75326 -106.27975 37081 ft 497 kts 120°
2026-05-05 08:54 52.71527 -106.18179 37083 ft 497 kts 120°
2026-05-05 08:54 52.67754 -106.08487 37087 ft 497 kts 120°
2026-05-05 08:55 52.63960 -105.98779 37083 ft 497 kts 120°
2026-05-05 08:55 52.60157 -105.89085 37076 ft 497 kts 120°
2026-05-05 08:56 52.56353 -105.79427 37071 ft 497 kts 120°
2026-05-05 08:56 52.52550 -105.69806 37069 ft 497 kts 120°
2026-05-05 08:57 52.48714 -105.60139 37069 ft 497 kts 120°
2026-05-05 08:57 52.44877 -105.50506 37069 ft 496 kts 120°
2026-05-05 08:58 52.41054 -105.40943 37064 ft 496 kts 120°
2026-05-05 08:58 52.37212 -105.31370 37058 ft 497 kts 121°
2026-05-05 08:59 52.33341 -105.21761 37061 ft 496 kts 121°
2026-05-05 08:59 52.29495 -105.12250 37065 ft 496 kts 121°
2026-05-05 09:00 52.25641 -105.02753 37064 ft 496 kts 121°
2026-05-05 09:00 52.21776 -104.93264 37062 ft 495 kts 121°
2026-05-05 09:01 52.17884 -104.83743 37060 ft 495 kts 121°
2026-05-05 09:01 52.14021 -104.74332 37057 ft 495 kts 121°
2026-05-05 09:02 52.10133 -104.64894 37048 ft 494 kts 121°
2026-05-05 09:02 52.06239 -104.55474 37038 ft 494 kts 121°
2026-05-05 09:03 52.02342 -104.46084 37037 ft 494 kts 121°
2026-05-05 09:03 51.98455 -104.36749 37035 ft 494 kts 121°
2026-05-05 09:04 51.94546 -104.27395 37031 ft 495 kts 122°
2026-05-05 09:04 51.90628 -104.18057 37028 ft 495 kts 122°
2026-05-05 09:05 51.86665 -104.08643 37017 ft 494 kts 122°
2026-05-05 09:05 51.82732 -103.99335 37015 ft 494 kts 122°
2026-05-05 09:06 51.78782 -103.90021 37013 ft 494 kts 122°
2026-05-05 09:06 51.74837 -103.80753 37010 ft 494 kts 122°
2026-05-05 09:07 51.70883 -103.71497 37001 ft 494 kts 122°
2026-05-05 09:07 51.66895 -103.62193 36992 ft 494 kts 122°
2026-05-05 09:08 51.62946 -103.53015 36990 ft 495 kts 122°
2026-05-05 09:08 51.58941 -103.43740 36987 ft 495 kts 122°
2026-05-05 09:09 51.54946 -103.34519 36985 ft 495 kts 123°
2026-05-05 09:09 51.50934 -103.25292 36981 ft 496 kts 123°
2026-05-05 09:10 51.46910 -103.16072 36977 ft 497 kts 123°
2026-05-05 09:10 51.42905 -103.06929 36974 ft 497 kts 123°
2026-05-05 09:11 51.38851 -102.97704 36973 ft 497 kts 123°
2026-05-05 09:11 51.34798 -102.88517 36972 ft 498 kts 123°
2026-05-05 09:12 51.30761 -102.79396 36973 ft 498 kts 123°
2026-05-05 09:12 51.26687 -102.70223 36973 ft 499 kts 123°
2026-05-05 09:13 51.22602 -102.61062 36972 ft 498 kts 123°
2026-05-05 09:13 51.18509 -102.51911 36973 ft 498 kts 123°
2026-05-05 09:14 51.14417 -102.42797 36973 ft 499 kts 123°
2026-05-05 09:14 51.10318 -102.33697 36973 ft 499 kts 124°
2026-05-05 09:15 51.06184 -102.24552 36972 ft 499 kts 124°
2026-05-05 09:15 51.02059 -102.15459 36971 ft 499 kts 124°
2026-05-05 09:16 50.97957 -102.06448 36970 ft 499 kts 124°
2026-05-05 09:16 50.93808 -101.97366 36970 ft 500 kts 124°
2026-05-05 09:17 50.89660 -101.88319 36969 ft 501 kts 124°
2026-05-05 09:17 50.85494 -101.79262 36960 ft 501 kts 124°
2026-05-05 09:18 50.81341 -101.70264 36958 ft 502 kts 125°
2026-05-05 09:18 50.77152 -101.61222 36962 ft 502 kts 125°
2026-05-05 09:19 50.72972 -101.52229 36963 ft 502 kts 125°
2026-05-05 09:19 50.68769 -101.43218 36963 ft 502 kts 125°
2026-05-05 09:20 50.64561 -101.34226 36960 ft 502 kts 126°
2026-05-05 09:20 50.60341 -101.25240 36954 ft 502 kts 126°
2026-05-05 09:21 50.56119 -101.16283 36951 ft 502 kts 126°
2026-05-05 09:21 50.51911 -101.07381 36939 ft 502 kts 126°
2026-05-05 09:22 50.47673 -100.98449 36923 ft 502 kts 126°
2026-05-05 09:22 50.43428 -100.89533 36917 ft 502 kts 126°
2026-05-05 09:23 50.39185 -100.80652 36914 ft 502 kts 126°
2026-05-05 09:23 50.34952 -100.71820 36918 ft 502 kts 126°
2026-05-05 09:24 50.30697 -100.62972 36924 ft 502 kts 126°
2026-05-05 09:24 50.26430 -100.54129 36925 ft 502 kts 126°
2026-05-05 09:25 50.22143 -100.45274 36924 ft 502 kts 126°
2026-05-05 09:25 50.17886 -100.36511 36924 ft 503 kts 126°
2026-05-05 09:26 50.13550 -100.27615 36919 ft 504 kts 127°
2026-05-05 09:26 50.09262 -100.18849 36920 ft 504 kts 127°
2026-05-05 09:27 50.04933 -100.10027 36921 ft 505 kts 127°
2026-05-05 09:27 50.00620 -100.01267 36923 ft 505 kts 127°
2026-05-05 09:28 49.96983 -99.91779 36936 ft 502 kts 110°
2026-05-05 09:28 49.93970 -99.81830 36928 ft 502 kts 115°
2026-05-05 09:29 49.90747 -99.72083 36930 ft 499 kts 116°
2026-05-05 09:29 49.87513 -99.62388 36926 ft 499 kts 116°
2026-05-05 09:30 49.84261 -99.52679 36927 ft 500 kts 116°
2026-05-05 09:30 49.80999 -99.42976 36925 ft 500 kts 116°
2026-05-05 09:31 49.77739 -99.33321 36921 ft 500 kts 117°
2026-05-05 09:31 49.74457 -99.23635 36918 ft 501 kts 117°
2026-05-05 09:32 49.71151 -99.13915 36915 ft 501 kts 117°
2026-05-05 09:32 49.67870 -99.04307 36911 ft 501 kts 117°
2026-05-05 09:33 49.64559 -98.94649 36907 ft 502 kts 117°
2026-05-05 09:33 49.61240 -98.85001 36910 ft 502 kts 117°
2026-05-05 09:34 49.57900 -98.75330 36912 ft 503 kts 117°
2026-05-05 09:34 49.54575 -98.65739 36908 ft 503 kts 117°
2026-05-05 09:35 49.51220 -98.56095 36904 ft 503 kts 117°
2026-05-05 09:35 49.46184 -98.41691 36893 ft 502 kts 117°
2026-05-05 09:36 49.42835 -98.32155 36896 ft 502 kts 118°
2026-05-05 09:36 49.39443 -98.22536 36901 ft 502 kts 118°
2026-05-05 09:37 49.36053 -98.12953 36903 ft 502 kts 118°
2026-05-05 09:37 49.32688 -98.03481 36905 ft 501 kts 118°
2026-05-05 09:38 49.29288 -97.93941 36907 ft 502 kts 118°
2026-05-05 09:38 49.25881 -97.84418 36905 ft 503 kts 118°
2026-05-05 09:39 49.22468 -97.74915 36906 ft 503 kts 118°
2026-05-05 09:39 49.19038 -97.65398 36909 ft 503 kts 118°
2026-05-05 09:40 49.15624 -97.55959 36909 ft 503 kts 118°
2026-05-05 09:40 49.12181 -97.46477 36907 ft 503 kts 118°
2026-05-05 09:41 49.08746 -97.37049 36904 ft 504 kts 118°
2026-05-05 09:41 49.05251 -97.27492 36897 ft 504 kts 119°
2026-05-05 09:42 49.01777 -97.18029 36896 ft 505 kts 119°
2026-05-05 09:42 48.97977 -97.08868 36898 ft 504 kts 127°
2026-05-05 09:43 48.93831 -97.00131 36891 ft 505 kts 126°
2026-05-05 09:43 48.89659 -96.91330 36889 ft 504 kts 126°
2026-05-05 09:44 48.85473 -96.82528 36886 ft 505 kts 126°
2026-05-05 09:44 48.81289 -96.73759 36885 ft 506 kts 126°
2026-05-05 09:45 48.77116 -96.65042 36883 ft 505 kts 126°
2026-05-05 09:45 48.72912 -96.56289 36882 ft 505 kts 126°
2026-05-05 09:46 48.68705 -96.47555 36880 ft 506 kts 127°
2026-05-05 09:46 48.64510 -96.38878 36879 ft 506 kts 127°
2026-05-05 09:47 48.60271 -96.30135 36866 ft 506 kts 127°
2026-05-05 09:47 48.56034 -96.21428 36861 ft 507 kts 127°
2026-05-05 09:48 48.51812 -96.12775 36864 ft 508 kts 128°
2026-05-05 09:48 48.47555 -96.04083 36865 ft 509 kts 128°
2026-05-05 09:49 48.43290 -95.95400 36864 ft 509 kts 128°
2026-05-05 09:49 48.39022 -95.86738 36863 ft 509 kts 128°
2026-05-05 09:50 48.34733 -95.78064 36863 ft 509 kts 128°
2026-05-05 09:50 48.30449 -95.69427 36864 ft 509 kts 128°
2026-05-05 09:51 48.26137 -95.60759 36864 ft 509 kts 128°
2026-05-05 09:51 48.21852 -95.52175 36863 ft 509 kts 128°
2026-05-05 09:52 48.17528 -95.43539 36858 ft 509 kts 128°
2026-05-05 09:52 48.13197 -95.34916 36856 ft 509 kts 129°
2026-05-05 09:53 48.08847 -95.26283 36853 ft 509 kts 129°
2026-05-05 09:53 48.04530 -95.17744 36854 ft 509 kts 129°
2026-05-05 09:54 48.00183 -95.09172 36853 ft 509 kts 129°
2026-05-05 09:54 47.95857 -95.00667 36859 ft 510 kts 129°
2026-05-05 09:55 47.91484 -94.92097 36858 ft 512 kts 129°
2026-05-05 09:55 47.87109 -94.83549 36845 ft 513 kts 129°
2026-05-05 09:56 47.82690 -94.74946 36841 ft 513 kts 129°
2026-05-05 09:56 47.78255 -94.66336 36838 ft 513 kts 129°
2026-05-05 09:57 47.73833 -94.57780 36837 ft 513 kts 129°
2026-05-05 09:57 47.69421 -94.49267 36837 ft 512 kts 129°
2026-05-05 09:58 47.65020 -94.40806 36838 ft 512 kts 129°
2026-05-05 09:58 47.60614 -94.32357 36831 ft 511 kts 130°
2026-05-05 09:59 47.56165 -94.23854 36824 ft 511 kts 130°
2026-05-05 09:59 47.51729 -94.15402 36821 ft 511 kts 130°
2026-05-05 10:00 47.47321 -94.07030 36821 ft 511 kts 130°
2026-05-05 10:00 47.42892 -93.98643 36818 ft 512 kts 130°
2026-05-05 10:01 47.38429 -93.90218 36814 ft 512 kts 130°
2026-05-05 10:01 47.33988 -93.81860 36813 ft 512 kts 130°
2026-05-05 10:02 47.29530 -93.73494 36815 ft 512 kts 130°
2026-05-05 10:02 47.25054 -93.65123 36817 ft 513 kts 130°
2026-05-05 10:03 47.20571 -93.56762 36817 ft 514 kts 131°
2026-05-05 10:03 47.16071 -93.48395 36817 ft 514 kts 131°
2026-05-05 10:04 47.11545 -93.40028 36817 ft 514 kts 131°
2026-05-05 10:04 47.07032 -93.31707 36810 ft 515 kts 132°
2026-05-05 10:05 47.02473 -93.23329 36809 ft 516 kts 132°
2026-05-05 10:05 46.97940 -93.15022 36808 ft 516 kts 132°
2026-05-05 10:06 46.93385 -93.06702 36807 ft 516 kts 132°
2026-05-05 10:06 46.88818 -92.98384 36805 ft 517 kts 132°
2026-05-05 10:07 46.84235 -92.90061 36802 ft 517 kts 132°
2026-05-05 10:07 46.79608 -92.81686 36796 ft 517 kts 132°
2026-05-05 10:08 46.75022 -92.73408 36790 ft 517 kts 132°
2026-05-05 10:08 46.70447 -92.65176 36785 ft 518 kts 132°
2026-05-05 10:09 46.65844 -92.56918 36782 ft 518 kts 132°
2026-05-05 10:09 46.61209 -92.48627 36786 ft 519 kts 132°
2026-05-05 10:10 46.56584 -92.40379 36790 ft 519 kts 133°
2026-05-05 10:10 46.51922 -92.32089 36791 ft 519 kts 133°
2026-05-05 10:11 46.47275 -92.23853 36796 ft 519 kts 133°
2026-05-05 10:11 46.42639 -92.15659 36787 ft 520 kts 133°
2026-05-05 10:12 46.37946 -92.07390 36778 ft 520 kts 134°
2026-05-05 10:12 46.33281 -91.99193 36775 ft 521 kts 134°
2026-05-05 10:13 46.28577 -91.90952 36772 ft 521 kts 134°
2026-05-05 10:13 46.23848 -91.82694 36780 ft 522 kts 134°
2026-05-05 10:14 46.19108 -91.74439 36784 ft 522 kts 134°
2026-05-05 10:14 46.14390 -91.66248 36783 ft 522 kts 134°
2026-05-05 10:15 46.09674 -91.58084 36779 ft 522 kts 134°
2026-05-05 10:15 46.04965 -91.49958 36776 ft 521 kts 134°
2026-05-05 10:16 46.00142 -91.41998 36768 ft 517 kts 139°
2026-05-05 10:16 45.95026 -91.34356 36765 ft 518 kts 139°
2026-05-05 10:17 45.89972 -91.26794 36780 ft 517 kts 139°
2026-05-05 10:17 45.84878 -91.19194 36781 ft 519 kts 139°
2026-05-05 10:18 45.79784 -91.11616 36768 ft 519 kts 139°
2026-05-05 10:18 45.74698 -91.04069 36774 ft 518 kts 139°
2026-05-05 10:19 45.69569 -90.96483 36779 ft 518 kts 139°
2026-05-05 10:19 45.64503 -90.89003 36786 ft 518 kts 139°
2026-05-05 10:20 45.59354 -90.81435 36788 ft 518 kts 139°
2026-05-05 10:20 45.54259 -90.73962 36784 ft 518 kts 139°
2026-05-05 10:21 45.49152 -90.66486 36783 ft 518 kts 140°
2026-05-05 10:21 45.44054 -90.59047 36776 ft 518 kts 140°
2026-05-05 10:22 45.38940 -90.51606 36776 ft 517 kts 140°
2026-05-05 10:22 45.33832 -90.44199 36775 ft 517 kts 140°
2026-05-05 10:23 45.28739 -90.36827 36775 ft 516 kts 140°
2026-05-05 10:23 45.23609 -90.29415 36760 ft 515 kts 140°
2026-05-05 10:24 45.18481 -90.22048 36767 ft 516 kts 141°
2026-05-05 10:24 45.13352 -90.14685 36768 ft 517 kts 141°
2026-05-05 10:25 45.08196 -90.07299 36767 ft 517 kts 141°
2026-05-05 10:25 45.03061 -89.99975 36772 ft 516 kts 141°
2026-05-05 10:26 44.97911 -89.92638 36771 ft 517 kts 141°
2026-05-05 10:26 44.92754 -89.85317 36771 ft 519 kts 141°
2026-05-05 10:27 44.87556 -89.77962 36782 ft 518 kts 141°
2026-05-05 10:27 44.82365 -89.70629 36778 ft 515 kts 141°
2026-05-05 10:28 44.77179 -89.63326 36780 ft 515 kts 141°
2026-05-05 10:28 44.72023 -89.56087 36787 ft 516 kts 142°
2026-05-05 10:29 44.66837 -89.48821 36791 ft 516 kts 142°
2026-05-05 10:29 44.61678 -89.41612 36793 ft 516 kts 142°
2026-05-05 10:30 44.56501 -89.34401 36796 ft 516 kts 143°
2026-05-05 10:30 44.51293 -89.27160 36792 ft 515 kts 143°
2026-05-05 10:31 44.46120 -89.19992 36793 ft 515 kts 143°
2026-05-05 10:31 44.40952 -89.12848 36805 ft 515 kts 143°
2026-05-05 10:32 44.35765 -89.05695 36815 ft 514 kts 143°
2026-05-05 10:32 44.30576 -88.98558 36825 ft 513 kts 143°
2026-05-05 10:33 44.25438 -88.91516 36831 ft 513 kts 143°
2026-05-05 10:33 44.20224 -88.84382 36836 ft 513 kts 143°
2026-05-05 10:34 44.15088 -88.77380 36836 ft 512 kts 143°
2026-05-05 10:34 44.09903 -88.70322 36832 ft 511 kts 143°
2026-05-05 10:35 44.04693 -88.63245 36826 ft 509 kts 143°
2026-05-05 10:35 43.99567 -88.56310 36824 ft 508 kts 144°
2026-05-05 10:36 43.94821 -88.48614 36832 ft 517 kts 136°
2026-05-05 10:36 43.90189 -88.40793 36833 ft 516 kts 137°
2026-05-05 10:37 43.85539 -88.33033 36828 ft 515 kts 138°
2026-05-05 10:37 43.80869 -88.25269 36793 ft 513 kts 138°
2026-05-05 10:38 43.76207 -88.17540 36793 ft 514 kts 138°
2026-05-05 10:38 43.71543 -88.09827 36790 ft 514 kts 138°
2026-05-05 10:39 43.66876 -88.02129 36793 ft 513 kts 138°
2026-05-05 10:39 43.62230 -87.94486 36801 ft 513 kts 138°
2026-05-05 10:40 43.57574 -87.86848 36804 ft 513 kts 138°
2026-05-05 10:40 43.52889 -87.79182 36806 ft 513 kts 138°
2026-05-05 10:41 43.48235 -87.71587 36809 ft 513 kts 138°
2026-05-05 10:41 43.43553 -87.63967 36813 ft 512 kts 138°
2026-05-05 10:42 43.36554 -87.52613 36814 ft 511 kts 138°
2026-05-05 10:43 43.31905 -87.45094 36817 ft 510 kts 138°
2026-05-05 10:43 43.27237 -87.37566 36820 ft 510 kts 137°
2026-05-05 10:44 43.22543 -87.30012 36795 ft 508 kts 138°
2026-05-05 10:44 43.17874 -87.22520 36790 ft 508 kts 138°
2026-05-05 10:45 43.13226 -87.15083 36788 ft 507 kts 138°
2026-05-05 10:45 43.08572 -87.07653 36786 ft 505 kts 138°
2026-05-05 10:46 43.03921 -87.00249 36790 ft 505 kts 138°
2026-05-05 10:46 42.99297 -86.92905 36794 ft 505 kts 138°
2026-05-05 10:47 42.94643 -86.85530 36790 ft 504 kts 138°
2026-05-05 10:47 42.89973 -86.78151 36784 ft 504 kts 138°
2026-05-05 10:48 42.85305 -86.70794 36784 ft 503 kts 138°
2026-05-05 10:48 42.80650 -86.63474 36780 ft 503 kts 138°
2026-05-05 10:49 42.75960 -86.56118 36776 ft 502 kts 137°
2026-05-05 10:49 42.71312 -86.48846 36772 ft 502 kts 137°
2026-05-05 10:50 42.66655 -86.41579 36777 ft 502 kts 137°
2026-05-05 10:50 42.61969 -86.34285 36780 ft 502 kts 138°
2026-05-05 10:51 42.57311 -86.27052 36768 ft 500 kts 138°
2026-05-05 10:51 42.52636 -86.19810 36764 ft 500 kts 138°
2026-05-05 10:52 42.47957 -86.12580 36766 ft 500 kts 137°
2026-05-05 10:52 42.43461 -86.05204 36767 ft 494 kts 135°
2026-05-05 10:53 42.39102 -85.97842 36770 ft 493 kts 135°
2026-05-05 10:53 42.34732 -85.90496 36774 ft 494 kts 135°
2026-05-05 10:54 42.30357 -85.83161 36772 ft 493 kts 135°
2026-05-05 10:54 42.26005 -85.75881 36765 ft 492 kts 134°
2026-05-05 10:55 42.21614 -85.68556 36764 ft 492 kts 135°
2026-05-05 10:55 42.17245 -85.61285 36766 ft 492 kts 135°
2026-05-05 10:56 42.12864 -85.54011 36767 ft 492 kts 135°
2026-05-05 10:56 42.08474 -85.46738 36768 ft 492 kts 135°
2026-05-05 10:57 42.04079 -85.39477 36767 ft 492 kts 135°
2026-05-05 10:57 41.99656 -85.32185 36758 ft 491 kts 135°
2026-05-05 10:58 41.95282 -85.24994 36764 ft 491 kts 135°
2026-05-05 10:58 41.91079 -85.18102 36763 ft 492 kts 135°
2026-05-05 10:59 41.86655 -85.10861 36759 ft 494 kts 135°
2026-05-05 10:59 41.82228 -85.03632 36757 ft 494 kts 135°
2026-05-05 11:00 41.77821 -84.96454 36755 ft 494 kts 135°
2026-05-05 11:00 41.73397 -84.89265 36755 ft 493 kts 135°
2026-05-05 11:01 41.68944 -84.82049 36029 ft 500 kts 135°
2026-05-05 11:01 41.66695 -84.78410 35437 ft 498 kts 135°
2026-05-05 11:01 41.64372 -84.74941 34835 ft 495 kts 138°
2026-05-05 11:01 41.61990 -84.71454 34139 ft 499 kts 138°
2026-05-05 11:02 41.59633 -84.67988 33440 ft 500 kts 137°
2026-05-05 11:02 41.57234 -84.64461 32627 ft 500 kts 138°
2026-05-05 11:02 41.54863 -84.60977 31786 ft 500 kts 138°
2026-05-05 11:02 41.52451 -84.57433 31151 ft 496 kts 138°
2026-05-05 11:03 41.50090 -84.53975 30270 ft 497 kts 138°
2026-05-05 11:03 41.47769 -84.50573 29765 ft 489 kts 138°
2026-05-05 11:03 41.45423 -84.47147 28928 ft 489 kts 138°
2026-05-05 11:03 41.43115 -84.43771 28310 ft 485 kts 138°
2026-05-05 11:04 41.40836 -84.40445 27917 ft 474 kts 138°
2026-05-05 11:04 41.38553 -84.37118 27313 ft 471 kts 138°
2026-05-05 11:04 41.36314 -84.33859 26784 ft 466 kts 139°
2026-05-05 11:04 41.34114 -84.30660 26185 ft 463 kts 139°
2026-05-05 11:05 41.31901 -84.27447 25351 ft 465 kts 139°
2026-05-05 11:05 41.29722 -84.24280 24946 ft 453 kts 139°
2026-05-05 11:05 41.27577 -84.21168 24634 ft 440 kts 139°
2026-05-05 11:05 41.25413 -84.18282 24206 ft 424 kts 146°
2026-05-05 11:06 41.23163 -84.15768 23859 ft 413 kts 146°
2026-05-05 11:06 41.20949 -84.13268 23443 ft 409 kts 147°
2026-05-05 11:06 41.18752 -84.10789 23010 ft 405 kts 146°
2026-05-05 11:06 41.16556 -84.08309 22494 ft 404 kts 146°
2026-05-05 11:07 41.14402 -84.05876 22120 ft 398 kts 146°
2026-05-05 11:07 41.12248 -84.03447 21533 ft 398 kts 146°
2026-05-05 11:07 41.10128 -84.01057 21127 ft 392 kts 146°
2026-05-05 11:07 41.08025 -83.98687 20731 ft 388 kts 146°
2026-05-05 11:08 41.05946 -83.96352 20237 ft 385 kts 146°
2026-05-05 11:08 41.03887 -83.94036 19669 ft 385 kts 146°
2026-05-05 11:08 41.01821 -83.91714 19329 ft 377 kts 146°
2026-05-05 11:08 40.99775 -83.89418 18960 ft 372 kts 146°
2026-05-05 11:09 40.97776 -83.87176 18497 ft 372 kts 146°
2026-05-05 11:09 40.95763 -83.84920 18083 ft 368 kts 146°
2026-05-05 11:09 40.93803 -83.82726 17720 ft 364 kts 146°
2026-05-05 11:09 40.91816 -83.80505 17378 ft 366 kts 146°
2026-05-05 11:10 40.89899 -83.78364 16801 ft 369 kts 146°
2026-05-05 11:10 40.87909 -83.76137 16437 ft 362 kts 146°
2026-05-05 11:10 40.85954 -83.73956 15907 ft 361 kts 146°
2026-05-05 11:10 40.83986 -83.71763 15325 ft 361 kts 146°
2026-05-05 11:11 40.82068 -83.69623 15001 ft 354 kts 146°
2026-05-05 11:11 40.80199 -83.67545 14461 ft 353 kts 146°
2026-05-05 11:11 40.78311 -83.65443 14096 ft 347 kts 146°
2026-05-05 11:11 40.76419 -83.63339 13591 ft 346 kts 146°
2026-05-05 11:12 40.74576 -83.61290 13200 ft 343 kts 146°
2026-05-05 11:12 40.72722 -83.59234 12770 ft 340 kts 146°
2026-05-05 11:12 40.70882 -83.57194 12312 ft 338 kts 146°
2026-05-05 11:12 40.69069 -83.55185 11886 ft 336 kts 146°
2026-05-05 11:13 40.67244 -83.53162 11455 ft 333 kts 146°
2026-05-05 11:13 40.65438 -83.51165 11037 ft 331 kts 146°
2026-05-05 11:13 40.63650 -83.49185 10641 ft 328 kts 146°
2026-05-05 11:13 40.61880 -83.47233 10308 ft 324 kts 146°
2026-05-05 11:14 40.60149 -83.45319 10271 ft 318 kts 146°
2026-05-05 11:14 40.58436 -83.43428 10164 ft 310 kts 146°
2026-05-05 11:14 40.56796 -83.41614 10060 ft 299 kts 147°
2026-05-05 11:14 40.55179 -83.39857 9979 ft 291 kts 151°
2026-05-05 11:15 40.53393 -83.38593 9892 ft 284 kts 162°
2026-05-05 11:15 40.51583 -83.37464 9741 ft 283 kts 162°
2026-05-05 11:15 40.49786 -83.36334 9596 ft 282 kts 162°
2026-05-05 11:15 40.47991 -83.35205 9454 ft 281 kts 162°
2026-05-05 11:16 40.46185 -83.34068 9300 ft 281 kts 162°
2026-05-05 11:16 40.44405 -83.32945 9152 ft 281 kts 163°
2026-05-05 11:16 40.42612 -83.31814 9005 ft 280 kts 163°
2026-05-05 11:16 40.40818 -83.30682 8859 ft 280 kts 163°
2026-05-05 11:17 40.39037 -83.29561 8715 ft 280 kts 163°
2026-05-05 11:17 40.37249 -83.28437 8572 ft 280 kts 163°
2026-05-05 11:17 40.35465 -83.27317 8428 ft 280 kts 163°
2026-05-05 11:17 40.33695 -83.26202 8286 ft 280 kts 163°
2026-05-05 11:18 40.31910 -83.25108 8139 ft 276 kts 168°
2026-05-05 11:18 40.30054 -83.24744 7935 ft 259 kts 192°
2026-05-05 11:18 40.28251 -83.24897 7679 ft 257 kts 192°
2026-05-05 11:18 40.26452 -83.25017 7423 ft 255 kts 192°
2026-05-05 11:19 40.24666 -83.25139 7175 ft 254 kts 192°
2026-05-05 11:19 40.22888 -83.25251 6983 ft 252 kts 190°
2026-05-05 11:19 40.21104 -83.24774 7002 ft 273 kts 163°
2026-05-05 11:19 40.19555 -83.23138 7010 ft 293 kts 134°
2026-05-05 11:20 40.18603 -83.20730 7008 ft 302 kts 120°
2026-05-05 11:20 40.17565 -83.18310 6889 ft 297 kts 128°
2026-05-05 11:20 40.16465 -83.16035 6738 ft 296 kts 129°
2026-05-05 11:20 40.15339 -83.13769 6595 ft 294 kts 130°
2026-05-05 11:21 40.14210 -83.11510 6452 ft 294 kts 130°
2026-05-05 11:21 40.13075 -83.09251 6312 ft 292 kts 130°
2026-05-05 11:21 40.11951 -83.07015 6174 ft 291 kts 129°
2026-05-05 11:21 40.10833 -83.04787 6036 ft 289 kts 129°
2026-05-05 11:22 40.09723 -83.02581 5899 ft 288 kts 129°
2026-05-05 11:22 40.08617 -83.00384 5764 ft 286 kts 129°
2026-05-05 11:22 40.07512 -82.98189 5628 ft 285 kts 129°
2026-05-05 11:22 40.06425 -82.96036 5495 ft 284 kts 129°
2026-05-05 11:23 40.05325 -82.93855 5361 ft 283 kts 129°
2026-05-05 11:23 40.04224 -82.91673 5226 ft 283 kts 129°
2026-05-05 11:23 40.03144 -82.89535 5096 ft 284 kts 130°
2026-05-05 11:23 40.02040 -82.87350 4963 ft 284 kts 130°
2026-05-05 11:24 40.00944 -82.85184 4828 ft 282 kts 130°
2026-05-05 11:24 39.99887 -82.83008 4685 ft 285 kts 122°
2026-05-05 11:24 39.99214 -82.80507 4601 ft 284 kts 120°
2026-05-05 11:24 39.98063 -82.78543 4540 ft 259 kts 151°
2026-05-05 11:25 39.96510 -82.77634 4395 ft 235 kts 179°
2026-05-05 11:25 39.94911 -82.77813 3941 ft 229 kts 201°
2026-05-05 11:25 39.93357 -82.78383 3539 ft 234 kts 201°
2026-05-05 11:25 39.91880 -82.79196 3261 ft 227 kts 215°
2026-05-05 11:26 39.90709 -82.80460 2993 ft 208 kts 224°
2026-05-05 11:26 39.89710 -82.81679 2721 ft 183 kts 224°
2026-05-05 11:26 39.88850 -82.82775 2523 ft 161 kts 224°
2026-05-05 11:26 39.88156 -82.83672 2437 ft 138 kts 224°
2026-05-05 11:27 39.87513 -82.84508 2193 ft 130 kts 224°
2026-05-05 11:27 39.86881 -82.85335 2014 ft 129 kts 224°
2026-05-05 11:27 39.86242 -82.86173 1837 ft 129 kts 224°
2026-05-05 11:27 39.85603 -82.87010 1660 ft 131 kts 224°
2026-05-05 11:28 39.84949 -82.87862 1480 ft 133 kts 224°
2026-05-05 11:28 39.84293 -82.88724 1300 ft 135 kts 225°
2026-05-05 11:28 39.83625 -82.89598 1117 ft 137 kts 225°
2026-05-05 11:28 39.82947 -82.90486 935 ft 138 kts 225°
2026-05-05 11:29 39.82272 -82.91369 764 ft 136 kts 225°
2026-05-05 11:29 39.81703 -82.92114 745 ft 84 kts 225°
2026-05-05 11:29 39.81405 -82.92504 744 ft 50 kts 225°
2026-05-05 11:29 39.81174 -82.92805 746 ft 43 kts 225°
2026-05-05 11:30 39.80981 -82.93057 747 ft 35 kts 225°
2026-05-05 11:30 39.80866 -82.93200 748 ft 15 kts 223°
2026-05-05 11:30 39.80817 -82.93269 748 ft 7 kts 242°
2026-05-05 11:30 39.80825 -82.93336 748 ft 8 kts 304°
2026-05-05 11:31 39.80870 -82.93400 749 ft 10 kts 314°
2026-05-05 11:31 39.80928 -82.93470 750 ft 12 kts 317°
2026-05-05 11:31 39.80996 -82.93554 750 ft 15 kts 316°
2026-05-05 11:31 39.81081 -82.93657 751 ft 18 kts 318°
2026-05-05 11:32 39.81152 -82.93744 751 ft 11 kts 316°
2026-05-05 11:32 39.81230 -82.93751 751 ft 13 kts 38°
2026-05-05 11:32 39.81306 -82.93661 751 ft 16 kts 45°
2026-05-05 11:32 39.81392 -82.93549 750 ft 16 kts 32°
2026-05-05 11:33 39.81451 -82.93629 751 ft 13 kts 285°
2026-05-05 11:33 39.81489 -82.93729 751 ft 13 kts 337°
2026-05-05 11:33 39.81575 -82.93722 751 ft 9 kts 21°
2026-05-05 11:33 39.81622 -82.93686 751 ft 5 kts 38°
2026-05-05 11:34 39.81643 -82.93662 751 ft 2 kts 44°
2026-05-05 11:34 39.81646 -82.93658 751 ft 0 kts 44°
2026-05-05 11:34 39.81648 -82.93655 751 ft 0 kts 44°